| time (UTC) | temp F | wind direction | speed knots | gust knots | rain 1hr in | rain 24hr in | rain mn in | humidity % | barometer mb |
| 20260504150820 | 68 | 170 | 0.0 | 0.0 | 0.00 | 0.00 | 0.00 | 46 | 1013.0 |
| 20260504150316 | 67 | 133 | 0.0 | 0.0 | 0.00 | 0.00 | 0.00 | 46 | 1013.2 |
| 20260504141247 | 63 | 136 | 0.0 | 0.0 | 0.00 | 0.00 | 0.00 | 56 | 1013.1 |
| 20260504140743 | 62 | 201 | 4.3 | 8.7 | 0.00 | 0.00 | 0.00 | 56 | 1013.3 |
| 20260504140239 | 62 | 113 | 0.0 | 0.9 | 0.00 | 0.00 | 0.00 | 57 | 1013.3 |
| 20260504130708 | 59 | 186 | 3.5 | 5.2 | 0.00 | 0.00 | 0.00 | 62 | 1013.6 |
| 20260504130203 | 58 | 254 | 0.0 | 0.0 | 0.00 | 0.00 | 0.00 | 67 | 1013.9 |
| 20260504120127 | 54 | 199 | 0.0 | 0.9 | 0.00 | 0.00 | 0.00 | 77 | 1014.2 |
| 20260504110555 | 48 | 148 | 0.0 | 0.0 | 0.00 | 0.00 | 0.00 | 86 | 1014.7 |
| 20260504100517 | 44 | 148 | 0.0 | 0.0 | 0.00 | 0.00 | 0.00 | 85 | 1014.6 |
| 20260504081910 | 47 | 147 | 0.0 | 0.0 | 0.00 | 0.00 | 0.00 | 70 | 1014.5 |
| 20260504081407 | 48 | 165 | 0.0 | 0.0 | 0.00 | 0.00 | 0.00 | 69 | 1014.5 |
| 20260504080903 | 47 | 142 | 0.0 | 0.0 | 0.00 | 0.00 | 0.00 | 69 | 1014.4 |
| 20260504080400 | 47 | 142 | 0.0 | 0.0 | 0.00 | 0.00 | 0.00 | 69 | 1014.4 |
| 20260504070327 | 46 | 148 | 0.0 | 0.0 | 0.00 | 0.00 | 0.00 | 69 | 1014.0 |
| 20260504060247 | 47 | 186 | 0.0 | 0.0 | 0.00 | 0.00 | 0.00 | 66 | 1014.1 |
| 20260504050715 | 46 | 169 | 0.0 | 0.0 | 0.00 | 0.00 | 0.00 | 64 | 1014.1 |
| 20260504050212 | 46 | 193 | 0.0 | 0.0 | 0.00 | 0.00 | 0.00 | 64 | 1014.1 |
| 20260504045709 | 46 | 144 | 0.0 | 0.0 | 0.00 | 0.00 | 0.00 | 65 | 1013.9 |
| 20260504045204 | 46 | 140 | 0.0 | 0.0 | 0.00 | 0.00 | 0.00 | 65 | 1014.0 |
| 20260504044702 | 46 | 171 | 0.0 | 0.0 | 0.00 | 0.00 | 0.00 | 64 | 1013.8 |
| 20260504044159 | 47 | 160 | 0.0 | 0.0 | 0.00 | 0.00 | 0.00 | 64 | 1013.9 |
| 20260504043655 | 47 | 185 | 0.0 | 0.0 | 0.00 | 0.00 | 0.00 | 62 | 1013.9 |
| 20260504043153 | 46 | 173 | 0.0 | 0.0 | 0.00 | 0.00 | 0.00 | 62 | 1014.0 |
| 20260504042650 | 46 | 146 | 0.0 | 0.0 | 0.00 | 0.00 | 0.00 | 64 | 1014.0 |
| 20260504042146 | 46 | 158 | 0.0 | 0.0 | 0.00 | 0.00 | 0.00 | 66 | 1013.7 |
| 20260504041642 | 46 | 170 | 0.0 | 0.0 | 0.00 | 0.00 | 0.00 | 64 | 1013.8 |
| 20260504041138 | 46 | 158 | 0.0 | 0.0 | 0.00 | 0.00 | 0.00 | 63 | 1013.8 |
| 20260504040636 | 46 | 159 | 0.0 | 0.0 | 0.00 | 0.00 | 0.00 | 64 | 1013.6 |
| 20260504040133 | 46 | 147 | 0.0 | 0.0 | 0.00 | 0.00 | 0.00 | 62 | 1013.4 |
| 20260504035629 | 47 | 157 | 0.0 | 0.0 | 0.00 | 0.00 | 0.00 | 61 | 1013.6 |
| 20260504035126 | 47 | 154 | 0.0 | 0.0 | 0.00 | 0.00 | 0.00 | 60 | 1013.5 |
| 20260504034624 | 47 | 143 | 0.0 | 0.0 | 0.00 | 0.00 | 0.00 | 61 | 1013.5 |
| 20260504034121 | 47 | 155 | 0.0 | 0.0 | 0.00 | 0.00 | 0.00 | 60 | 1013.6 |
| 20260504033618 | 47 | 169 | 0.0 | 0.0 | 0.00 | 0.00 | 0.00 | 60 | 1013.3 |
| 20260504033115 | 47 | 139 | 0.0 | 0.0 | 0.00 | 0.00 | 0.00 | 60 | 1013.4 |
| 20260504032612 | 47 | 156 | 0.0 | 0.0 | 0.00 | 0.00 | 0.00 | 60 | 1013.3 |
| 20260504032109 | 47 | 152 | 0.0 | 0.0 | 0.00 | 0.00 | 0.00 | 59 | 1013.3 |
| 20260504031606 | 47 | 147 | 0.0 | 0.0 | 0.00 | 0.00 | 0.00 | 59 | 1013.2 |
| 20260504031102 | 47 | 157 | 0.0 | 0.0 | 0.00 | 0.00 | 0.00 | 58 | 1013.3 |
| 20260504030600 | 47 | 162 | 0.0 | 0.0 | 0.00 | 0.00 | 0.00 | 59 | 1013.2 |
| 20260504030056 | 48 | 164 | 0.0 | 0.0 | 0.00 | 0.00 | 0.00 | 58 | 1013.4 |
| 20260504025553 | 48 | 149 | 0.0 | 0.0 | 0.00 | 0.00 | 0.00 | 57 | 1013.3 |
| 20260504025050 | 47 | 162 | 0.0 | 0.0 | 0.00 | 0.00 | 0.00 | 57 | 1013.4 |
| 20260504024547 | 47 | 161 | 0.0 | 0.0 | 0.00 | 0.00 | 0.00 | 59 | 1013.5 |
| 20260504024044 | 47 | 144 | 0.0 | 0.0 | 0.00 | 0.00 | 0.00 | 60 | 1013.3 |
| 20260504023540 | 46 | 156 | 0.0 | 0.0 | 0.00 | 0.00 | 0.00 | 60 | 1013.5 |
| 20260504023036 | 46 | 162 | 0.0 | 0.0 | 0.00 | 0.00 | 0.00 | 61 | 1013.4 |
| 20260504022532 | 47 | 146 | 0.0 | 0.0 | 0.00 | 0.00 | 0.00 | 59 | 1013.5 |
| 20260504022029 | 47 | 153 | 0.0 | 0.0 | 0.00 | 0.00 | 0.00 | 59 | 1013.3 |
| 20260504021526 | 48 | 159 | 0.0 | 0.0 | 0.00 | 0.00 | 0.00 | 59 | 1013.5 |
| 20260504021023 | 48 | 163 | 0.0 | 0.0 | 0.00 | 0.00 | 0.00 | 56 | 1013.4 |
| 20260504020520 | 48 | 152 | 0.0 | 0.0 | 0.00 | 0.00 | 0.00 | 56 | 1013.4 |
| 20260504020017 | 48 | 187 | 0.0 | 0.0 | 0.00 | 0.00 | 0.00 | 56 | 1013.3 |
| 20260504015513 | 48 | 153 | 0.0 | 0.0 | 0.00 | 0.00 | 0.00 | 56 | 1013.1 |
| 20260504015009 | 48 | 159 | 0.0 | 0.0 | 0.00 | 0.00 | 0.00 | 55 | 1013.5 |
| 20260504014505 | 48 | 155 | 0.0 | 0.0 | 0.00 | 0.00 | 0.00 | 56 | 1013.3 |
| 20260504014003 | 48 | 158 | 0.0 | 0.0 | 0.00 | 0.00 | 0.00 | 56 | 1013.1 |
| 20260504013500 | 48 | 152 | 0.0 | 0.0 | 0.00 | 0.00 | 0.00 | 57 | 1013.1 |
| 20260504012956 | 49 | 160 | 0.0 | 0.0 | 0.00 | 0.00 | 0.00 | 55 | 1013.2 |
| 20260504012454 | 49 | 152 | 0.0 | 0.0 | 0.00 | 0.00 | 0.00 | 54 | 1013.1 |
| 20260504011952 | 49 | 163 | 0.0 | 0.0 | 0.00 | 0.00 | 0.00 | 55 | 1013.0 |
| 20260504011448 | 49 | 157 | 0.0 | 0.0 | 0.00 | 0.00 | 0.00 | 55 | 1013.0 |
| 20260504010944 | 49 | 157 | 0.0 | 0.0 | 0.00 | 0.00 | 0.00 | 56 | 1012.9 |
| 20260504010440 | 49 | 161 | 0.0 | 0.0 | 0.00 | 0.00 | 0.00 | 56 | 1012.8 |
| 20260504005936 | 49 | 157 | 0.0 | 0.0 | 0.00 | 0.00 | 0.00 | 53 | 1012.7 |
| 20260504005433 | 50 | 159 | 0.0 | 0.0 | 0.00 | 0.00 | 0.00 | 52 | 1012.7 |
| 20260504004931 | 50 | 152 | 0.0 | 0.0 | 0.00 | 0.00 | 0.00 | 50 | 1012.6 |
| 20260504004428 | 50 | 156 | 0.0 | 0.0 | 0.00 | 0.00 | 0.00 | 50 | 1012.4 |
| 20260504003925 | 51 | 159 | 0.0 | 0.0 | 0.00 | 0.00 | 0.00 | 49 | 1012.5 |
| 20260504003421 | 51 | 159 | 0.0 | 0.0 | 0.00 | 0.00 | 0.00 | 48 | 1012.3 |
| 20260504002918 | 52 | 151 | 0.0 | 0.0 | 0.00 | 0.00 | 0.00 | 48 | 1012.3 |
| 20260504002415 | 52 | 143 | 0.0 | 0.0 | 0.00 | 0.00 | 0.00 | 46 | 1012.3 |
| 20260504001913 | 53 | 151 | 0.0 | 0.0 | 0.00 | 0.00 | 0.00 | 44 | 1012.2 |
| 20260504001410 | 54 | 157 | 0.0 | 0.0 | 0.00 | 0.00 | 0.00 | 42 | 1012.1 |
| 20260504000906 | 55 | 150 | 0.0 | 0.0 | 0.00 | 0.00 | 0.00 | 43 | 1012.1 |
| 20260504000404 | 55 | 183 | 0.0 | 0.0 | 0.00 | 0.00 | 0.00 | 40 | 1012.1 |
| 20260503235901 | 55 | 205 | 0.0 | 0.0 | 0.00 | 0.00 | 0.00 | 39 | 1012.0 |
| 20260503235359 | 55 | 134 | 0.0 | 0.0 | 0.00 | 0.00 | 0.00 | 40 | 1012.1 |
| 20260503234856 | 56 | 137 | 0.0 | 0.0 | 0.00 | 0.00 | 0.00 | 39 | 1012.0 |
| 20260503234354 | 56 | 142 | 0.0 | 0.0 | 0.00 | 0.00 | 0.00 | 39 | 1011.9 |
| 20260503233851 | 57 | 168 | 0.0 | 0.0 | 0.00 | 0.00 | 0.00 | 37 | 1012.0 |
| 20260503233347 | 57 | 212 | 0.0 | 0.0 | 0.00 | 0.00 | 0.00 | 37 | 1011.8 |
| 20260503232844 | 57 | 129 | 0.9 | 0.9 | 0.00 | 0.00 | 0.00 | 36 | 1011.7 |
| 20260503232341 | 57 | 138 | 0.0 | 0.0 | 0.00 | 0.00 | 0.00 | 36 | 1011.7 |
| 20260503231839 | 57 | 44 | 0.0 | 0.0 | 0.00 | 0.00 | 0.00 | 36 | 1011.6 |
| 20260503231336 | 58 | 138 | 0.0 | 0.0 | 0.00 | 0.00 | 0.00 | 36 | 1011.7 |
| 20260503230832 | 58 | 152 | 0.0 | 0.0 | 0.00 | 0.00 | 0.00 | 36 | 1011.6 |
| 20260503230329 | 58 | 106 | 0.0 | 1.7 | 0.00 | 0.00 | 0.00 | 35 | 1011.4 |
| 20260503225827 | 58 | 204 | 0.9 | 2.6 | 0.00 | 0.00 | 0.00 | 35 | 1011.6 |
| 20260503225322 | 58 | 152 | 0.0 | 0.0 | 0.00 | 0.00 | 0.00 | 36 | 1011.6 |
| 20260503224819 | 58 | 48 | 0.0 | 0.0 | 0.00 | 0.00 | 0.00 | 37 | 1011.8 |
| 20260503224316 | 58 | 338 | 0.0 | 0.0 | 0.00 | 0.00 | 0.00 | 35 | 1011.5 |
| 20260503223814 | 58 | 160 | 0.0 | 0.9 | 0.00 | 0.00 | 0.00 | 37 | 1011.6 |
| 20260503223311 | 58 | 51 | 0.0 | 0.9 | 0.00 | 0.00 | 0.00 | 36 | 1011.6 |
| 20260503222807 | 59 | 250 | 0.0 | 0.0 | 0.00 | 0.00 | 0.00 | 35 | 1011.6 |
| 20260503222306 | 59 | 156 | 0.9 | 2.6 | 0.00 | 0.00 | 0.00 | 35 | 1011.6 |
| 20260503221803 | 59 | 140 | 0.0 | 0.0 | 0.00 | 0.00 | 0.00 | 35 | 1011.5 |
| 20260503221301 | 59 | 24 | 0.0 | 0.9 | 0.00 | 0.00 | 0.00 | 34 | 1011.5 |
| 20260503220757 | 59 | 176 | 0.0 | 0.9 | 0.00 | 0.00 | 0.00 | 36 | 1011.6 |
| 20260503220254 | 59 | 156 | 0.0 | 0.9 | 0.00 | 0.00 | 0.00 | 37 | 1011.7 |
| 20260503215751 | 59 | 189 | 1.7 | 5.2 | 0.00 | 0.00 | 0.00 | 34 | 1011.8 |
| 20260503215248 | 59 | 129 | 0.0 | 0.9 | 0.00 | 0.00 | 0.00 | 36 | 1011.7 |
| 20260503214746 | 59 | 123 | 1.7 | 2.6 | 0.00 | 0.00 | 0.00 | 34 | 1011.7 |
| 20260503214242 | 59 | 116 | 0.0 | 0.0 | 0.00 | 0.00 | 0.00 | 35 | 1011.7 |
| 20260503213741 | 59 | 126 | 0.0 | 0.0 | 0.00 | 0.00 | 0.00 | 34 | 1011.6 |
| 20260503213238 | 59 | 88 | 1.7 | 2.6 | 0.00 | 0.00 | 0.00 | 35 | 1011.3 |
| 20260503212734 | 59 | 11 | 1.7 | 2.6 | 0.00 | 0.00 | 0.00 | 34 | 1011.4 |
| 20260503212232 | 59 | 165 | 0.0 | 0.0 | 0.00 | 0.00 | 0.00 | 34 | 1011.4 |
| 20260503211730 | 60 | 220 | 2.6 | 2.6 | 0.00 | 0.00 | 0.00 | 34 | 1011.4 |
| 20260503211226 | 60 | 141 | 0.0 | 0.9 | 0.00 | 0.00 | 0.00 | 33 | 1011.4 |
| 20260503210721 | 60 | 55 | 0.0 | 0.0 | 0.00 | 0.00 | 0.00 | 34 | 1011.5 |
| 20260503210219 | 60 | 258 | 0.0 | 0.9 | 0.00 | 0.00 | 0.00 | 35 | 1011.5 |
| 20260503205714 | 60 | 10 | 1.7 | 2.6 | 0.00 | 0.00 | 0.00 | 33 | 1011.5 |
| 20260503205210 | 60 | 331 | 0.0 | 0.0 | 0.00 | 0.00 | 0.00 | 33 | 1011.3 |
| 20260503204707 | 59 | 26 | 0.0 | 0.0 | 0.00 | 0.00 | 0.00 | 33 | 1011.5 |
| 20260503204205 | 60 | 119 | 2.6 | 4.3 | 0.00 | 0.00 | 0.00 | 33 | 1011.6 |
| 20260503203702 | 59 | 124 | 0.0 | 0.0 | 0.00 | 0.00 | 0.00 | 35 | 1011.4 |
| 20260503203159 | 59 | 171 | 2.6 | 4.3 | 0.00 | 0.00 | 0.00 | 35 | 1011.5 |
| 20260503202656 | 60 | 9 | 0.0 | 0.9 | 0.00 | 0.00 | 0.00 | 34 | 1011.4 |
| 20260503202154 | 60 | 179 | 0.0 | 0.0 | 0.00 | 0.00 | 0.00 | 31 | 1011.5 |
| 20260503201652 | 61 | 151 | 1.7 | 5.2 | 0.00 | 0.00 | 0.00 | 32 | 1011.4 |
| 20260503201149 | 61 | 352 | 1.7 | 2.6 | 0.00 | 0.00 | 0.00 | 34 | 1011.4 |
| 20260503200645 | 62 | 260 | 0.0 | 0.0 | 0.00 | 0.00 | 0.00 | 33 | 1011.5 |
| 20260503200141 | 60 | 111 | 0.0 | 0.9 | 0.00 | 0.00 | 0.00 | 34 | 1011.5 |
| 20260503195639 | 61 | 146 | 0.9 | 1.7 | 0.00 | 0.00 | 0.00 | 34 | 1011.7 |
| 20260503195136 | 61 | 43 | 1.7 | 2.6 | 0.00 | 0.00 | 0.00 | 31 | 1011.3 |
| 20260503194633 | 61 | 54 | 1.7 | 6.1 | 0.00 | 0.00 | 0.00 | 33 | 1011.5 |
| 20260503194128 | 62 | 241 | 0.9 | 4.3 | 0.00 | 0.00 | 0.00 | 34 | 1011.8 |
| 20260503193625 | 62 | 205 | 0.0 | 0.9 | 0.00 | 0.00 | 0.00 | 33 | 1011.4 |
| 20260503193121 | 62 | 138 | 1.7 | 4.3 | 0.00 | 0.00 | 0.00 | 33 | 1011.6 |
| 20260503192616 | 61 | 105 | 0.0 | 0.0 | 0.00 | 0.00 | 0.00 | 34 | 1011.9 |
| 20260503192112 | 62 | 18 | 0.9 | 0.9 | 0.00 | 0.00 | 0.00 | 34 | 1011.9 |
| 20260503191609 | 61 | 276 | 0.0 | 0.9 | 0.00 | 0.00 | 0.00 | 33 | 1012.0 |
| 20260503191106 | 62 | 261 | 0.0 | 0.0 | 0.00 | 0.00 | 0.00 | 37 | 1012.0 |
| 20260503190604 | 60 | 122 | 2.6 | 4.3 | 0.00 | 0.00 | 0.00 | 34 | 1011.8 |
| 20260503190101 | 60 | 152 | 0.0 | 0.0 | 0.00 | 0.00 | 0.00 | 36 | 1012.2 |
| 20260503185557 | 60 | 103 | 0.9 | 2.6 | 0.00 | 0.00 | 0.00 | 33 | 1012.1 |
| 20260503185056 | 60 | 334 | 0.9 | 0.9 | 0.00 | 0.00 | 0.00 | 34 | 1012.1 |
| 20260503184552 | 59 | 70 | 3.5 | 6.1 | 0.00 | 0.00 | 0.00 | 33 | 1012.1 |
| 20260503184049 | 59 | 217 | 1.7 | 2.6 | 0.00 | 0.00 | 0.00 | 34 | 1012.6 |
| 20260503183546 | 60 | 6 | 0.0 | 0.9 | 0.00 | 0.00 | 0.00 | 34 | 1012.4 |
| 20260503183043 | 61 | 79 | 0.0 | 0.0 | 0.00 | 0.00 | 0.00 | 33 | 1012.4 |
| 20260503182541 | 60 | 147 | 0.0 | 0.9 | 0.00 | 0.00 | 0.00 | 35 | 1012.2 |
| 20260503182039 | 59 | 163 | 0.0 | 0.0 | 0.00 | 0.00 | 0.00 | 39 | 1012.2 |
| 20260503181536 | 59 | 119 | 0.0 | 0.9 | 0.00 | 0.00 | 0.00 | 39 | 1012.5 |
| 20260503181032 | 59 | 159 | 4.3 | 7.8 | 0.00 | 0.00 | 0.00 | 35 | 1012.5 |
| 20260503180529 | 56 | 224 | 0.0 | 0.9 | 0.00 | 0.00 | 0.00 | 39 | 1012.4 |
| 20260503180027 | 57 | 190 | 0.9 | 1.7 | 0.00 | 0.00 | 0.00 | 40 | 1012.6 |
| 20260503175524 | 59 | 249 | 0.9 | 1.7 | 0.00 | 0.00 | 0.00 | 38 | 1012.7 |
| 20260503175021 | 58 | 127 | 0.9 | 1.7 | 0.00 | 0.00 | 0.00 | 41 | 1012.4 |
| 20260503174518 | 58 | 325 | 0.0 | 0.0 | 0.00 | 0.00 | 0.00 | 39 | 1012.5 |
| 20260503174014 | 58 | 329 | 0.0 | 0.0 | 0.00 | 0.00 | 0.00 | 39 | 1012.5 |
| 20260503173509 | 58 | 122 | 3.5 | 6.1 | 0.00 | 0.00 | 0.00 | 36 | 1012.4 |
| 20260503173006 | 58 | 239 | 0.0 | 0.0 | 0.00 | 0.00 | 0.00 | 40 | 1012.5 |
| 20260503172504 | 58 | 124 | 1.7 | 2.6 | 0.00 | 0.00 | 0.00 | 36 | 1012.7 |
| 20260503172001 | 59 | 171 | 0.0 | 0.9 | 0.00 | 0.00 | 0.00 | 38 | 1012.7 |
| 20260503171457 | 58 | 68 | 0.0 | 0.0 | 0.00 | 0.00 | 0.00 | 39 | 1012.7 |
| 20260503170954 | 57 | 122 | 0.0 | 0.0 | 0.00 | 0.00 | 0.00 | 41 | 1012.4 |
| 20260503170450 | 56 | 108 | 1.7 | 5.2 | 0.00 | 0.00 | 0.00 | 42 | 1012.6 |